Weather History for Volk, WI

Change the Weather History Date:

Thursday, August 21, 2014

  Actual Average Record
Temperature  
Mean Temperature 70 °F -  
Max Temperature 78 °F 76 °F 89 °F (2003)
Min Temperature 62 °F 60 °F 37 °F (2012)
Cooling Degree Days 4    
Growing Degree Days 20 (Base 50)    
Moisture  
Dew Point 68 °F    
Average Humidity 99    
Maximum Humidity 100    
Minimum Humidity 89    
Precipitation  
Precipitation 0.03 in - - ()
Sea Level Pressure  
Sea Level Pressure 29.91 in    
Wind  
Wind Speed 5 mph (ESE)    
Max Wind Speed 12 mph    
Max Gust Speed -    
Visibility 5 miles    
Events Rain , Thunderstorm    
Averages and records for this station are not official NWS values.
T = Trace of Precipitation, MM = Missing Value Source: NWS Daily Summary

Daily Weather History Graph

Daily Weather History Graph

Search for Another Location

Airport:

Trip Planner

Search our weather history database for the weather conditions in past years. The results will help you decide how hot, cold, wet, or windy it might be!

Date:

Astronomy

Aug. 21, 2014 Rise Set
Actual Time 6:11 AM CDT 7:55 PM CDT
Civil Twilight 5:41 AM CDT 8:26 PM CDT
Nautical Twilight 5:03 AM CDT 9:03 PM CDT
Astronomical Twilight 4:23 AM CDT 9:43 PM CDT
Moon 2:38 AM CDT (8/21) 5:27 PM CDT (8/21)
Length of Visible Light 14h 44m
Length of Day
13h 43m
Waning Crescent, 13% of the Moon is Illuminated
Aug 21
Waning Crescent
Aug 25
New
Sep 2
First Quarter
Sep 8
Full
Sep 15
Last Quarter

Hourly Weather History & Observations

Time (CDT) Temp. Dew Point Humidity Pressure Visibility Wind Dir Wind Speed Gust Speed Precip Events Conditions
12:03 AM 62.6 °F 62.6 °F 100% 29.94 in 4.0 mi SE 2.3 mph - N/A   Clear
12:08 AM 62.6 °F 62.6 °F 100% 29.94 in 6.0 mi East 3.5 mph - N/A   Clear
12:58 AM 63.7 °F 63.7 °F 100% 29.94 in 6.0 mi East 5.8 mph - N/A   Clear
1:38 AM 62.6 °F 62.6 °F 100% 29.94 in 5.0 mi East 5.8 mph - N/A   Clear
1:48 AM 64.4 °F 64.4 °F 100% 29.94 in 6.0 mi SE 3.5 mph - N/A   Partly Cloudy
1:58 AM 64.4 °F 64.4 °F 100% 29.93 in 7.0 mi ESE 4.6 mph - N/A   Scattered Clouds
2:13 AM 62.6 °F 62.6 °F 100% 29.93 in 10.0 mi SE 3.5 mph - N/A   Scattered Clouds
2:58 AM 64.2 °F 64.2 °F 100% 29.92 in 6.0 mi SE 2.3 mph - N/A   Clear
3:03 AM 62.6 °F 62.6 °F 100% 29.92 in 4.0 mi ESE 2.3 mph - N/A   Clear
3:18 AM 62.6 °F 62.6 °F 100% 29.92 in 5.0 mi ESE 2.3 mph - N/A   Partly Cloudy
3:23 AM 62.6 °F 62.6 °F 100% 29.92 in 4.0 mi East 3.5 mph - N/A   Partly Cloudy
3:38 AM 62.6 °F 62.6 °F 100% 29.92 in 2.5 mi East 4.6 mph - N/A   Scattered Clouds
3:48 AM 64.4 °F 64.4 °F 100% 29.91 in 3.0 mi East 5.8 mph - N/A   Mostly Cloudy
3:58 AM 64.4 °F 64.4 °F 100% 29.90 in 2.5 mi East 6.9 mph - N/A   Mostly Cloudy
4:13 AM 64.4 °F 64.4 °F 100% 29.90 in 3.0 mi SSE 5.8 mph - N/A   Partly Cloudy
4:45 AM 64.4 °F 64.4 °F 100% 29.90 in 3.0 mi SE 8.1 mph - N/A   Partly Cloudy
4:50 AM 64.4 °F 64.4 °F 100% 29.90 in 2.5 mi ESE 9.2 mph - N/A   Scattered Clouds
4:55 AM 64.4 °F 64.4 °F 100% 29.90 in 2.5 mi ESE 9.2 mph - N/A   Mostly Cloudy
4:57 AM 64.4 °F 64.4 °F 100% 29.89 in 2.5 mi ESE 10.4 mph - N/A   Mostly Cloudy
4:58 AM 65.1 °F 65.1 °F 100% 29.89 in 2.5 mi ESE 10.4 mph - N/A   Mostly Cloudy
5:03 AM 64.4 °F 64.4 °F 100% 29.89 in 2.0 mi East 9.2 mph - N/A   Mostly Cloudy
5:08 AM 66.2 °F 66.2 °F 100% 29.88 in 2.5 mi ESE 8.1 mph - N/A   Mostly Cloudy
5:13 AM 66.2 °F 66.2 °F 100% 29.89 in 3.0 mi ESE 6.9 mph - N/A   Overcast
5:33 AM 66.2 °F 66.2 °F 100% 29.89 in 3.0 mi ESE 8.1 mph - N/A   Overcast
5:48 AM 66.2 °F 66.2 °F 100% 29.90 in 3.0 mi East 5.8 mph - N/A   Overcast
5:58 AM 65.3 °F 65.3 °F 100% 29.91 in 3.0 mi East 4.6 mph - N/A   Overcast
6:03 AM 64.4 °F 64.4 °F 100% 29.90 in 3.0 mi East 5.8 mph - N/A   Overcast
6:08 AM 64.4 °F 64.4 °F 100% 29.90 in 2.5 mi East 8.1 mph - N/A   Overcast
6:13 AM 64.4 °F 64.4 °F 100% 29.90 in 1.8 mi East 5.8 mph - N/A   Overcast
6:18 AM 64.4 °F 64.4 °F 100% 29.90 in 1.5 mi East 5.8 mph - N/A   Overcast
6:27 AM 66.2 °F 66.2 °F 100% 29.91 in 1.5 mi SE 5.8 mph - N/A Rain Light Rain
6:37 AM 66.2 °F 66.2 °F 100% 29.91 in 2.0 mi ESE 4.6 mph - N/A Rain Light Rain
6:42 AM 66.2 °F 66.2 °F 100% 29.90 in 3.0 mi ESE 5.8 mph - N/A Rain Light Rain
6:45 AM 66.2 °F 66.2 °F 100% 29.90 in 3.0 mi SE 6.9 mph - N/A   Overcast
6:58 AM 65.7 °F 65.7 °F 100% 29.90 in 3.0 mi ESE 5.8 mph - 0.03 in   Overcast
7:03 AM 66.2 °F 66.2 °F 100% 29.91 in 3.0 mi ESE 4.6 mph - N/A   Light Drizzle
7:06 AM 66.2 °F 66.2 °F 100% 29.91 in 3.0 mi ESE 5.8 mph - N/A   Light Drizzle
7:13 AM 66.2 °F 66.2 °F 100% 29.91 in 3.0 mi SE 6.9 mph - N/A   Overcast
7:58 AM 65.8 °F 65.8 °F 100% 29.91 in 3.0 mi East 8.1 mph - 0.00 in Thunderstorm Overcast
8:48 AM 66.2 °F 66.2 °F 100% 29.93 in 6.0 mi SE 4.6 mph - N/A   Overcast
8:58 AM 66.2 °F 66.2 °F 100% 29.92 in 6.0 mi ESE 6.9 mph - N/A Rain Light Rain
9:37 AM 66.2 °F 66.2 °F 100% 29.93 in 2.0 mi South 4.6 mph - N/A Rain , Thunderstorm Rain Showers
9:43 AM 66.2 °F 66.2 °F 100% 29.95 in 1.5 mi WSW 8.1 mph - N/A Rain , Thunderstorm Thunderstorms and Rain
9:58 AM 66.2 °F 66.2 °F 100% 29.94 in 3.0 mi SSE 8.1 mph - N/A Rain , Thunderstorm Light Thunderstorms and Rain
10:23 AM 66.2 °F 66.2 °F 100% 29.94 in 3.0 mi SE 8.1 mph - N/A Rain Light Rain
10:58 AM 68.0 °F 68.0 °F 100% 29.93 in 3.0 mi ESE 10.4 mph - N/A Rain Light Rain
11:43 AM 68.0 °F 68.0 °F 100% 29.89 in 7.0 mi East 8.1 mph - N/A   Overcast
11:58 AM 68.0 °F 68.0 °F 100% 29.89 in 10.0 mi ENE 8.1 mph - N/A   Overcast
12:58 PM 71.6 °F 71.6 °F 100% 29.90 in 10.0 mi ESE 8.1 mph - N/A   Overcast
1:46 PM 75.2 °F 73.4 °F 94% 29.89 in 10.0 mi SE 11.5 mph - N/A   Scattered Clouds
1:58 PM 75.2 °F 75.2 °F 100% 29.89 in 10.0 mi SE 9.2 mph - N/A   Scattered Clouds
2:58 PM 77.0 °F 75.2 °F 94% 29.87 in 10.0 mi SE 9.2 mph - N/A   Overcast
3:46 PM 77.0 °F 73.4 °F 89% 29.89 in 10.0 mi SSE 8.1 mph - N/A   Mostly Cloudy
3:58 PM 76.5 °F 74.3 °F 93% 29.89 in 10.0 mi SSE 9.2 mph - N/A   Mostly Cloudy
4:08 PM 77.0 °F 75.2 °F 94% 29.89 in 10.0 mi SE 8.1 mph - N/A   Mostly Cloudy
4:13 PM 77.0 °F 75.2 °F 94% 29.89 in 10.0 mi SSE 8.1 mph - N/A   Scattered Clouds
4:18 PM 77.0 °F 75.2 °F 94% 29.88 in 10.0 mi SSE 6.9 mph - N/A   Mostly Cloudy
4:58 PM 77.4 °F 75.0 °F 92% 29.89 in 10.0 mi ESE 5.8 mph - N/A   Mostly Cloudy
5:58 PM 76.8 °F 75.0 °F 94% 29.90 in 10.0 mi SE 5.8 mph - N/A   Mostly Cloudy
6:58 PM 76.8 °F 75.7 °F 96% 29.90 in 10.0 mi SSE 6.9 mph - N/A   Mostly Cloudy
7:03 PM 77.0 °F 75.2 °F 94% 29.89 in 10.0 mi SE 6.9 mph - N/A   Mostly Cloudy
7:08 PM 77.0 °F 75.2 °F 94% 29.90 in 10.0 mi SE 5.8 mph - N/A   Scattered Clouds
7:58 PM 74.1 °F 74.1 °F 100% 29.91 in 10.0 mi ESE 4.6 mph - N/A   Partly Cloudy
8:58 PM 72.7 °F 72.7 °F 100% 29.91 in 10.0 mi East 4.6 mph - N/A   Clear
9:58 PM 71.8 °F 71.8 °F 100% 29.91 in 10.0 mi South 4.6 mph - N/A   Clear
10:13 PM 71.6 °F 71.6 °F 100% 29.91 in 9.0 mi SE 5.8 mph - N/A   Clear
10:38 PM 69.8 °F 69.8 °F 100% 29.90 in 8.0 mi SE 4.6 mph - N/A   Clear
10:48 PM 69.8 °F 69.8 °F 100% 29.91 in 9.0 mi SE 4.6 mph - N/A   Clear
10:58 PM 70.5 °F 70.5 °F 100% 29.90 in 8.0 mi SE 5.8 mph - N/A   Clear
11:08 PM 69.8 °F 69.8 °F 100% 29.91 in 6.0 mi SSE 4.6 mph - N/A   Clear
11:18 PM 69.8 °F 69.8 °F 100% 29.91 in 5.0 mi ESE 3.5 mph - N/A   Clear
11:23 PM 69.8 °F 69.8 °F 100% 29.91 in 4.0 mi NE 2.3 mph - N/A   Clear
11:25 PM 69.8 °F 69.8 °F 100% 29.91 in 4.0 mi NE 2.3 mph - N/A   Partly Cloudy
11:35 PM 69.8 °F 69.8 °F 100% 29.91 in 1.2 mi East 3.5 mph - N/A   Mostly Cloudy
11:40 PM 69.8 °F 69.8 °F 100% 29.91 in 1.0 mi East 4.6 mph - N/A   Mist
11:45 PM 68.0 °F 68.0 °F 100% 29.91 in 1.8 mi East 4.6 mph - N/A   Scattered Clouds
11:50 PM 68.0 °F 68.0 °F 100% 29.91 in 2.0 mi ESE 3.5 mph - N/A   Scattered Clouds
11:58 PM 68.4 °F 68.4 °F 100% 29.92 in 2.5 mi ESE 3.5 mph - N/A   Partly Cloudy